EW7149 Weather Reports


Display with metric or nautical units.
time (UTC)temp
F
wind
direction
speed
MPH
gust
MPH
rain 1hr
in
rain 24hr
in
rain mn
in
humidity
%
barometer
mb
20260509191453 69 329 0.0 0.0 0.00 0.00 0.00 56 1008.8
20260509190441 69 173 0.0 1.0 0.00 0.00 0.00 56 1008.9
20260509185934 68 180 0.0 0.0 0.00 0.00 0.00 56 1008.9
20260509185426 68 237 0.0 0.0 0.00 0.00 0.00 57 1008.9
20260509184932 68 123 0.0 0.0 0.00 0.00 0.00 57 1009.0
20260509184423 67 121 0.0 0.0 0.00 0.00 0.00 57 1009.0
20260509183920 67 119 0.0 1.0 0.00 0.00 0.00 57 1009.0
20260509183427 66 142 0.0 2.0 0.00 0.00 0.00 58 1009.0
20260509182908 66 306 0.0 0.0 0.00 0.00 0.00 58 1009.1
20260509182416 66 304 0.0 1.0 0.00 0.00 0.00 57 1009.2
20260509181905 66 287 0.0 0.0 0.00 0.00 0.00 57 1009.6
20260509180849 66 314 0.0 0.0 0.00 0.00 0.00 57 1009.8
20260509180358 66 266 0.0 0.0 0.00 0.00 0.00 58 1009.9
20260509175337 64 22 0.0 0.0 0.00 0.00 0.00 58 1009.9
20260509174832 64 340 0.0 1.0 0.00 0.00 0.00 57 1010.2
20260509173826 64 106 0.0 0.0 0.00 0.00 0.00 58 1010.5
20260509173332 64 106 0.0 0.0 0.00 0.00 0.00 57 1010.6
20260509171812 64 114 0.0 0.0 0.00 0.00 0.00 57 1010.4
20260509171259 64 105 0.0 1.0 0.00 0.00 0.00 57 1010.3
20260509170804 64 312 0.0 0.0 0.00 0.00 0.00 58 1010.3
20260509170308 64 299 0.0 0.0 0.00 0.00 0.00 58 1010.2
20260509165806 64 266 0.0 0.0 0.00 0.00 0.00 57 1010.4
20260509164739 65 279 0.0 0.0 0.00 0.00 0.00 56 1010.4
20260509164243 65 279 0.0 0.0 0.00 0.00 0.00 57 1010.3
20260509163749 65 279 0.0 0.0 0.00 0.00 0.00 55 1010.5
20260509163253 65 279 0.0 1.0 0.00 0.00 0.00 56 1010.4
20260509162749 65 290 0.0 1.0 0.00 0.00 0.00 56 1010.4
20260509162232 65 345 0.0 0.0 0.00 0.00 0.00 55 1010.5
20260509161722 65 239 0.0 3.0 0.00 0.00 0.00 56 1010.5
20260509161204 65 283 0.0 0.0 0.00 0.00 0.00 57 1010.5
20260509160658 65 283 0.0 0.0 0.00 0.00 0.00 56 1010.5
20260509160158 64 265 0.0 0.0 0.00 0.00 0.00 56 1010.4
20260509155647 64 265 0.0 0.0 0.00 0.00 0.00 56 1010.5
20260509155139 65 246 0.0 0.0 0.00 0.00 0.00 57 1010.4
20260509154643 65 225 0.0 0.0 0.00 0.00 0.00 56 1010.5
20260509154140 65 196 0.0 0.0 0.00 0.00 0.00 56 1010.5
20260509153110 64 61 0.0 0.0 0.00 0.00 0.00 58 1010.6
20260509152614 63 61 0.0 0.0 0.00 0.00 0.00 58 1010.6
20260509152057 63 27 0.0 0.0 0.00 0.00 0.00 57 1010.7
20260509151037 61 168 0.0 0.0 0.00 0.00 0.00 58 1010.8
20260509150518 61 169 0.0 0.0 0.00 0.00 0.00 56 1011.0
20260509150007 60 168 0.0 0.0 0.00 0.00 0.00 55 1011.1
20260509145448 60 168 0.0 0.0 0.00 0.00 0.00 55 1011.2
20260509144942 60 168 0.0 0.0 0.00 0.00 0.00 55 1011.0
20260509143947 60 168 0.0 0.0 0.00 0.00 0.00 57 1011.0
20260509142924 59 168 0.0 0.0 0.00 0.00 0.00 58 1011.2
20260509142423 59 168 0.0 0.0 0.00 0.00 0.00 57 1011.0
20260509141412 59 148 0.0 0.0 0.00 0.00 0.00 58 1011.0
20260509140922 59 148 0.0 0.0 0.00 0.00 0.00 58 1010.9
20260509140424 58 148 0.0 0.0 0.00 0.00 0.00 58 1010.8
20260509135923 58 148 0.0 0.0 0.00 0.00 0.00 58 1010.8
20260509134426 58 145 0.0 1.0 0.00 0.00 0.00 58 1010.8
20260509133435 58 150 0.0 0.0 0.00 0.00 0.00 58 1010.7
20260509132926 58 148 0.0 1.0 0.00 0.00 0.00 58 1010.6
20260509132422 58 148 0.0 0.0 0.00 0.00 0.00 58 1010.6
20260509131908 58 159 0.0 0.0 0.00 0.00 0.00 58 1010.6
20260509131417 58 161 0.0 0.0 0.00 0.00 0.00 58 1010.6
20260509130412 58 144 0.0 0.0 0.00 0.00 0.00 59 1010.7
20260509125912 58 148 0.0 4.0 0.00 0.00 0.00 59 1010.7
20260509125402 58 160 0.0 0.0 0.00 0.00 0.00 59 1010.9
20260509124908 58 163 0.0 0.0 0.00 0.00 0.00 59 1010.9
20260509124357 57 140 0.0 0.0 0.00 0.00 0.00 59 1010.8
20260509123851 57 140 0.0 1.0 0.00 0.00 0.00 59 1010.8
20260509123353 57 158 0.0 0.0 0.00 0.00 0.00 59 1010.9
20260509122323 57 157 0.0 0.0 0.00 0.00 0.00 59 1010.8
20260509121326 57 164 0.0 0.0 0.00 0.00 0.00 59 1010.9
20260509120808 57 163 0.0 0.0 0.00 0.00 0.00 59 1010.9
20260509120313 56 155 0.0 0.0 0.00 0.00 0.00 59 1010.9
20260509115819 56 154 0.0 0.0 0.00 0.00 0.00 59 1010.9
20260509115327 56 150 0.0 2.0 0.00 0.00 0.00 59 1010.8
20260509114828 56 152 0.0 0.0 0.00 0.00 0.00 59 1010.8
20260509114336 56 150 0.0 0.0 0.00 0.00 0.00 59 1010.8
20260509113825 56 150 0.0 4.0 0.00 0.00 0.00 59 1010.8
20260509113316 56 147 0.0 1.0 0.00 0.00 0.00 59 1010.7
20260509112813 56 146 0.0 0.0 0.00 0.00 0.00 59 1010.5
20260509112308 56 146 0.0 0.0 0.00 0.00 0.00 59 1010.5
20260509111307 56 151 0.0 0.0 0.00 0.00 0.00 59 1010.4
20260509110757 56 152 0.0 0.0 0.00 0.00 0.00 59 1010.2
20260509110259 55 152 0.0 0.0 0.00 0.00 0.00 59 1010.2
20260509104814 55 161 0.0 0.0 0.00 0.00 0.00 59 1010.0
20260509104319 55 161 0.0 0.0 0.00 0.00 0.00 59 1010.0
20260509103813 55 165 0.0 0.0 0.00 0.00 0.00 59 1010.1
20260509103302 55 165 0.0 0.0 0.00 0.00 0.00 59 1010.1
20260509102811 55 165 0.0 0.0 0.00 0.00 0.00 59 1010.1
20260509102317 55 165 0.0 0.0 0.00 0.00 0.00 59 1010.1
20260509101307 55 142 0.0 0.0 0.00 0.00 0.00 59 1010.2
20260509100801 55 167 0.0 0.0 0.00 0.00 0.00 59 1010.1
20260509100255 55 167 0.0 0.0 0.00 0.00 0.00 59 1010.1
20260509095248 55 159 0.0 0.0 0.00 0.00 0.00 59 1010.0
20260509094258 55 163 0.0 0.0 0.00 0.00 0.00 59 1010.0
20260509093754 55 149 0.0 0.0 0.00 0.00 0.00 59 1010.0
20260509092744 55 150 0.0 0.0 0.00 0.00 0.00 59 1010.2
20260509092245 55 150 0.0 0.0 0.00 0.00 0.00 59 1010.1
20260509091738 55 155 0.0 0.0 0.00 0.00 0.00 59 1010.1
20260509090730 55 184 0.0 8.0 0.00 0.00 0.00 59 1010.2
20260509090221 55 151 0.0 0.0 0.00 0.00 0.00 59 1010.2
20260509085730 55 157 0.0 0.0 0.00 0.00 0.00 59 1010.2
20260509085218 55 164 0.0 6.0 0.00 0.00 0.00 59 1010.4
20260509084716 54 133 0.0 1.0 0.00 0.00 0.00 59 1010.5
20260509084201 54 145 0.0 0.0 0.00 0.00 0.00 59 1010.5
20260509082200 54 152 0.0 5.0 0.00 0.00 0.00 59 1010.5
20260509081145 54 150 0.0 4.0 0.00 0.00 0.00 59 1010.5
20260509080644 54 159 0.0 0.0 0.00 0.00 0.00 59 1010.6
20260509075641 54 163 0.0 1.0 0.00 0.00 0.00 59 1010.6
20260509075132 54 146 0.0 2.0 0.00 0.00 0.00 59 1010.7
20260509074615 54 159 0.0 1.0 0.00 0.00 0.00 59 1010.8
20260509074115 54 155 0.0 3.0 0.00 0.00 0.00 58 1010.7
20260509073610 54 167 0.0 0.0 0.00 0.00 0.00 58 1010.7
20260509073057 54 159 0.0 0.0 0.00 0.00 0.00 58 1010.7
20260509072601 54 158 0.0 3.0 0.00 0.00 0.00 58 1010.6
20260509072053 54 146 0.0 0.0 0.00 0.00 0.00 58 1010.7
20260509071101 54 190 0.0 0.0 0.00 0.00 0.00 58 1010.8
20260509070558 54 192 0.0 0.0 0.00 0.00 0.00 57 1010.8
20260509065543 54 192 0.0 0.0 0.00 0.00 0.00 57 1010.8
20260509065043 54 192 0.0 0.0 0.00 0.00 0.00 57 1010.8
20260509064527 54 161 0.0 4.0 0.00 0.00 0.00 57 1010.9
20260509064025 54 169 0.0 3.0 0.00 0.00 0.00 57 1010.9
20260509063519 54 169 0.0 3.0 0.00 0.00 0.00 57 1010.9
20260509063018 54 169 0.0 0.0 0.00 0.00 0.00 57 1010.9
20260509062526 54 159 0.0 0.0 0.00 0.00 0.00 57 1011.0
20260509062027 54 161 0.0 0.0 0.00 0.00 0.00 57 1011.1
20260509061032 54 161 0.0 3.0 0.00 0.00 0.00 57 1011.1
20260509060540 54 163 0.0 0.0 0.00 0.00 0.00 57 1011.1
20260509060024 54 165 0.0 0.0 0.00 0.00 0.00 57 1011.1
20260509055508 54 165 0.0 0.0 0.00 0.00 0.00 57 1011.1
20260509055003 54 165 0.0 0.0 0.00 0.00 0.00 58 1011.2
20260509054457 54 165 0.0 0.0 0.00 0.00 0.00 58 1011.2
20260509053504 54 165 0.0 0.0 0.00 0.00 0.00 58 1011.4
20260509052945 54 165 0.0 0.0 0.00 0.00 0.00 59 1011.3
20260509051911 54 165 0.0 0.0 0.00 0.00 0.00 59 1011.4
20260509051421 55 165 0.0 0.0 0.00 0.00 0.00 59 1011.5
20260509050904 55 165 0.0 0.0 0.00 0.00 0.00 58 1011.5
20260509045839 56 165 0.0 0.0 0.00 0.00 0.00 58 1011.6
20260509045342 56 165 0.0 0.0 0.00 0.00 0.00 58 1011.6
20260509044848 56 165 0.0 0.0 0.00 0.00 0.00 59 1011.4
20260509044334 56 165 0.0 0.0 0.00 0.00 0.00 58 1011.4
20260509043820 56 167 0.0 0.0 0.00 0.00 0.00 58 1011.4
20260509043317 56 167 0.0 0.0 0.00 0.00 0.00 58 1011.5
20260509042258 57 167 0.0 0.0 0.00 0.00 0.00 58 1011.5
20260509041804 57 167 0.0 0.0 0.00 0.00 0.00 57 1011.4
20260509041250 57 167 0.0 0.0 0.00 0.00 0.00 57 1011.5
20260509040736 57 167 0.0 0.0 0.00 0.00 0.00 57 1011.6
20260509040236 57 167 0.0 0.0 0.00 0.00 0.00 57 1011.6
20260509035739 57 167 0.0 0.0 0.00 0.00 0.00 57 1011.5
20260509034252 57 169 0.0 0.0 0.00 0.00 0.00 56 1011.6
20260509033754 57 199 0.0 0.0 0.00 0.00 0.00 56 1011.6
20260509033247 57 199 0.0 0.0 0.00 0.00 0.00 56 1011.7
20260509032744 58 199 0.0 0.0 0.00 0.00 0.00 56 1011.7
20260509032239 58 199 0.0 0.0 0.00 0.00 0.00 56 1011.7
20260509031727 58 199 0.0 0.0 0.00 0.00 0.00 55 1011.7
20260509030227 59 199 0.0 0.0 0.00 0.00 0.00 52 1011.9
20260509025736 59 199 0.0 0.0 0.00 0.00 0.00 52 1011.9
20260509025223 59 199 0.0 0.0 0.00 0.00 0.00 52 1012.0
20260509024722 60 199 0.0 0.0 0.00 0.00 0.00 52 1012.0
20260509024228 60 199 0.0 0.0 0.00 0.00 0.00 52 1012.0
20260509023717 60 199 0.0 0.0 0.00 0.00 0.00 52 1012.0
20260509023225 60 199 0.0 2.0 0.00 0.00 0.00 52 1012.0
20260509022716 59 199 0.0 2.0 0.00 0.00 0.00 52 1012.0
20260509022207 59 207 0.0 1.0 0.00 0.00 0.00 52 1012.0
20260509021656 59 253 0.0 0.0 0.00 0.00 0.00 52 1012.0
20260509020654 59 284 0.0 0.0 0.00 0.00 0.00 53 1012.0
20260509015646 59 313 0.0 0.0 0.00 0.00 0.00 53 1011.9
20260509015150 59 313 0.0 0.0 0.00 0.00 0.00 53 1011.9
20260509014636 60 313 0.0 0.0 0.00 0.00 0.00 52 1012.0
20260509014137 60 313 0.0 0.0 0.00 0.00 0.00 52 1012.0
20260509013644 60 313 0.0 0.0 0.00 0.00 0.00 52 1011.9
20260509013150 60 313 0.0 0.0 0.00 0.00 0.00 51 1011.9
20260509012132 60 313 0.0 0.0 0.00 0.00 0.00 51 1011.9
20260509011621 60 313 0.0 0.0 0.00 0.00 0.00 51 1011.9
20260509011114 60 313 0.0 0.0 0.00 0.00 0.00 52 1011.9
20260509010043 61 313 0.0 0.0 0.00 0.00 0.00 51 1011.8
20260509005538 61 313 0.0 0.0 0.00 0.00 0.00 49 1011.7
20260509005036 61 313 0.0 0.0 0.00 0.00 0.00 48 1011.7
20260509004525 61 313 0.0 0.0 0.00 0.00 0.00 48 1011.6
20260509002944 62 313 0.0 0.0 0.00 0.00 0.00 47 1011.6
20260509002427 62 313 0.0 0.0 0.00 0.00 0.00 46 1011.7
20260509001934 63 313 0.0 0.0 0.00 0.00 0.00 47 1011.7
20260509001434 63 313 0.0 0.0 0.00 0.00 0.00 47 1011.6
20260509000928 63 313 0.0 0.0 0.00 0.00 0.00 46 1011.5
20260509000432 63 313 0.0 0.0 0.00 0.00 0.00 46 1011.4
20260508235421 64 313 0.0 0.0 0.00 0.00 0.00 45 1011.3
20260508234916 64 313 0.0 0.0 0.00 0.00 0.00 43 1011.3
20260508234401 64 313 0.0 0.0 0.00 0.00 0.00 42 1011.3
20260508233908 64 313 0.0 0.0 0.00 0.00 0.00 42 1011.2
20260508233356 64 313 0.0 0.0 0.00 0.00 0.00 41 1011.2
20260508232902 64 313 0.0 0.0 0.00 0.00 0.00 41 1011.1
20260508232405 65 313 0.0 0.0 0.00 0.00 0.00 41 1011.1
20260508231851 65 313 0.0 0.0 0.00 0.00 0.00 40 1011.0
20260508230843 65 313 0.0 0.0 0.00 0.00 0.00 39 1011.0
20260508225855 65 313 0.0 0.0 0.00 0.00 0.00 39 1011.0
20260508225353 65 317 0.0 0.0 0.00 0.00 0.00 39 1011.1
20260508224847 65 275 0.0 0.0 0.00 0.00 0.00 39 1011.1
20260508224339 65 281 0.0 0.0 0.00 0.00 0.00 38 1011.0
20260508223835 65 293 0.0 0.0 0.00 0.00 0.00 38 1010.9
20260508223329 66 295 0.0 0.0 0.00 0.00 0.00 38 1010.9
20260508222812 66 292 0.0 0.0 0.00 0.00 0.00 37 1010.9
20260508222311 66 231 0.0 0.0 0.00 0.00 0.00 38 1010.9
20260508221752 66 251 0.0 3.0 0.00 0.00 0.00 37 1010.9
20260508221246 66 296 0.0 2.0 0.00 0.00 0.00 37 1011.0
20260508220753 66 240 0.0 0.0 0.00 0.00 0.00 37 1010.9
20260508220302 66 247 0.0 6.0 0.00 0.00 0.00 36 1011.0
20260508215808 66 21 0.0 5.0 0.00 0.00 0.00 36 1011.0
20260508215253 67 269 0.0 4.0 0.00 0.00 0.00 36 1010.9
20260508214742 67 303 0.0 3.0 0.00 0.00 0.00 35 1010.9
20260508214249 67 303 0.0 0.0 0.00 0.00 0.00 37 1010.9
20260508213750 67 255 0.0 2.0 0.00 0.00 0.00 35 1010.9
20260508213256 67 170 0.0 0.0 0.00 0.00 0.00 35 1010.8
20260508212231 67 167 0.0 5.0 0.00 0.00 0.00 34 1010.8
20260508211723 68 251 0.0 8.0 0.00 0.00 0.00 35 1010.8
20260508211210 68 271 0.0 3.0 0.00 0.00 0.00 35 1010.8
20260508210655 68 281 0.0 0.0 0.00 0.00 0.00 35 1010.7
20260508210156 69 263 0.0 0.0 0.00 0.00 0.00 34 1010.8
20260508205647 69 292 0.0 0.0 0.00 0.00 0.00 33 1010.9
20260508205155 70 285 0.0 10.0 0.00 0.00 0.00 32 1010.8
20260508204640 70 140 1.0 10.0 0.00 0.00 0.00 32 1010.9
20260508204130 70 262 1.0 10.0 0.00 0.00 0.00 31 1010.9
20260508203624 70 170 1.0 10.0 0.00 0.00 0.00 32 1010.9
20260508203121 70 177 0.0 6.0 0.00 0.00 0.00 34 1011.1
20260508201054 70 288 0.0 6.0 0.00 0.00 0.00 33 1011.1
20260508200550 69 271 0.0 10.0 0.00 0.00 0.00 32 1011.1
20260508194525 69 275 2.0 10.0 0.00 0.00 0.00 35 1011.3
20260508194031 69 242 3.0 10.0 0.00 0.00 0.00 34 1011.3
20260508193541 69 173 3.0 11.0 0.00 0.00 0.00 33 1011.5
20260508192525 68 144 2.0 12.0 0.00 0.00 0.00 35 1011.6